Hourly Weather Roundup
Issued by NWS Central Illinois

Home | Current Version | Previous Version | Text Only | Print | Product List | Glossary On
Versions: 1 2 3 4 5 6 7 8 9 10 11 12 13 14 15 16 17 18 19 20 21 22 23 24 25 26 27 28 29 30 31 32 33 34 35 36 37 38 39 40 41 42 43 44 45 46 47 48 49 50
000
NZUS43 KILX 301110
HWRILX

AREA WEATHER ROUNDUP
NATIONAL WEATHER SERVICE, LINCOLN IL
600 AM CDT WED JUL 30 2014


CITY           SKY/WX    TMP DP  RH WIND       PRES   REMARKS
BLOOMINGTON    CLEAR     58  55  89 SW6       30.06R
CHAMPAIGN      CLEAR     56  54  93 W6        30.06R
DECATUR        CLEAR     63  57  81 W6        30.07R
FLORA          CLEAR     54  53  97 CALM      30.08S
GALESBURG      CLEAR     54  53  95 CALM      30.06R
JACKSONVILLE   CLEAR     57  56  95 SW5       30.08S
LACON          CLEAR     57  56  95 CALM      30.04S
LAWRENCEVILLE  CLEAR     56  53  90 S3        30.08R
LITCHFIELD     CLEAR     55  53  95 CALM      30.08R
$$


CITY           SKY/WX    TMP DP  RH WIND       PRES   REMARKS
LINCOLN        CLEAR     59  56  89 CALM      30.04S
MACOMB         CLEAR     55  54  99 W3        30.08S
MATTOON        CLEAR     60  55  83 W6        30.06S
MT CARMEL AP   CLEAR     54  54 100 CALM      30.08R
OLNEY-NOBLE AP CLEAR     52  52 100 CALM      30.08S FOG
PARIS          CLEAR     56  55  95 CALM      30.07S
PEORIA         CLEAR     61  56  83 CALM      30.05S
PONTIAC        PTCLDY    59  57  94 CALM      30.04S
RANTOUL        CLEAR     59  55  89 W6        30.06R
ROBINSON       CLEAR     57  55  93 CALM      30.09R
SPRINGFIELD    CLEAR     58  55  90 SW5       30.07R
TAYLORVILLE    CLEAR     54  52  94 CALM      30.07S
$$

...REGIONAL REPORTS...


CITY           SKY/WX    TMP DP  RH WIND       PRES   REMARKS
CHICAGO O`HARE MOCLDY    62  54  74 W6        30.02R
KANKAKEE       CLOUDY    60  58  94 W3        30.04S
MOLINE         CLEAR     56  53  90 CALM      30.05R
MOUNT VERNON   CLEAR     54  48  82 CALM      30.10R
PITTSFIELD     CLEAR     58  55  89 W3        30.09S
QUINCY         CLEAR     59  57  93 CALM      30.08R
ROCKFORD       MOCLDY    59  55  87 CALM      30.06R
$$


CITY           SKY/WX    TMP DP  RH WIND       PRES   REMARKS
BURLINGTON     CLEAR     57  55  93 CALM      30.07R
CEDAR RAPIDS   CLEAR     54  51  90 W3        30.06S
DES MOINES     PTCLDY    59  54  83 NW3       30.10R
KIRKSVILLE     PTCLDY    55  54  96 NW3       30.10R
OTTUMWA        CLEAR     56  55  97 W3        30.08R
ST LOUIS       PTCLDY    65  57  75 CALM      30.09R
$$


CITY           SKY/WX    TMP DP  RH WIND       PRES   REMARKS
TERRE HAUTE    CLEAR     55  52  89 CALM      30.07R
EVANSVILLE     CLEAR     61  56  83 W6        30.09R
INDIANAPOLIS   PTCLDY    57  56  96 W7        30.04R
LAFAYETTE      CLOUDY    58  57  97 CALM      30.04R
MADISON        PTCLDY    58  55  90 NW3       30.03R
MILWAUKEE      PTCLDY    61  56  83 NW7       30.02R
$$




USA.gov is the U.S. government's official web portal to all federal, state and local government web resources and services.